Year,Month,Day,Hour,Minute,Value (Times are PST for temperature in C)
2014,09,12,00,00,13.40
2014,09,12,00,01,13.40
2014,09,12,00,02,13.50
2014,09,12,00,03,13.50
2014,09,12,00,04,13.50
2014,09,12,00,05,13.60
2014,09,12,00,06,13.60
2014,09,12,00,07,13.60
2014,09,12,00,08,13.60
2014,09,12,00,09,13.60
2014,09,12,00,10,13.60
2014,09,12,00,11,13.60
2014,09,12,00,12,13.60
2014,09,12,00,13,13.60
2014,09,12,00,14,13.60
2014,09,12,00,15,13.50
2014,09,12,00,16,13.50
2014,09,12,00,17,13.50
2014,09,12,00,18,13.40
2014,09,12,00,19,13.40
2014,09,12,00,20,13.40
2014,09,12,00,21,13.30
2014,09,12,00,22,13.30
2014,09,12,00,23,13.20
2014,09,12,00,24,13.20
2014,09,12,00,25,13.10
2014,09,12,00,26,13.10
2014,09,12,00,27,13.20
2014,09,12,00,28,13.30
2014,09,12,00,29,13.60
2014,09,12,00,30,13.70
2014,09,12,00,31,13.90
2014,09,12,00,32,14.10
2014,09,12,00,33,14.20
2014,09,12,00,34,14.30
2014,09,12,00,35,14.30
2014,09,12,00,36,14.30
2014,09,12,00,37,14.40
2014,09,12,00,38,14.50
2014,09,12,00,39,14.60
2014,09,12,00,40,14.70
2014,09,12,00,41,14.80
2014,09,12,00,42,14.80
2014,09,12,00,43,14.90
2014,09,12,00,44,14.90
2014,09,12,00,45,14.90
2014,09,12,00,46,14.90
2014,09,12,00,47,14.80
2014,09,12,00,48,14.90
2014,09,12,00,49,14.90
2014,09,12,00,50,14.90
2014,09,12,00,51,14.90
2014,09,12,00,52,14.90
2014,09,12,00,53,14.90
2014,09,12,00,54,14.90
2014,09,12,00,55,14.90
2014,09,12,00,56,14.90
2014,09,12,00,57,14.90
2014,09,12,00,58,14.90
2014,09,12,00,59,14.90
2014,09,12,01,00,14.90
2014,09,12,01,01,14.90
2014,09,12,01,02,14.90
2014,09,12,01,03,14.90
2014,09,12,01,04,14.90
2014,09,12,01,05,14.90
2014,09,12,01,06,14.80
2014,09,12,01,07,14.80
2014,09,12,01,08,14.80
2014,09,12,01,09,14.70
2014,09,12,01,10,14.70
2014,09,12,01,11,14.70
2014,09,12,01,12,14.60
2014,09,12,01,13,14.60
2014,09,12,01,14,14.50
2014,09,12,01,15,14.40
2014,09,12,01,16,14.40
2014,09,12,01,17,14.30
2014,09,12,01,18,14.30
2014,09,12,01,19,14.30
2014,09,12,01,20,14.20
2014,09,12,01,21,14.20
2014,09,12,01,22,14.30
2014,09,12,01,23,14.30
2014,09,12,01,24,14.30
2014,09,12,01,25,14.30
2014,09,12,01,26,14.30
2014,09,12,01,27,14.40
2014,09,12,01,28,14.40
2014,09,12,01,29,14.40
2014,09,12,01,30,14.50
2014,09,12,01,31,14.50
2014,09,12,01,32,14.60
2014,09,12,01,33,14.60
2014,09,12,01,34,14.60
2014,09,12,01,35,14.50
2014,09,12,01,36,14.50
2014,09,12,01,37,14.60
2014,09,12,01,38,14.60
2014,09,12,01,39,14.60
2014,09,12,01,40,14.60
2014,09,12,01,41,14.60
2014,09,12,01,42,14.60
2014,09,12,01,43,14.60
2014,09,12,01,44,14.70
2014,09,12,01,45,14.70
2014,09,12,01,46,14.70
2014,09,12,01,47,14.60
2014,09,12,01,48,14.60
2014,09,12,01,49,14.60
2014,09,12,01,50,14.50
2014,09,12,01,51,14.40
2014,09,12,01,52,14.40
2014,09,12,01,53,14.40
2014,09,12,01,54,14.40
2014,09,12,01,55,14.30
2014,09,12,01,56,14.30
2014,09,12,01,57,14.30
2014,09,12,01,58,14.20
2014,09,12,01,59,14.20
2014,09,12,02,00,14.10
2014,09,12,02,01,14.10
2014,09,12,02,02,14.10
2014,09,12,02,03,14.10
2014,09,12,02,04,14.10
2014,09,12,02,05,14.10
2014,09,12,02,06,14.10
2014,09,12,02,07,14.10
2014,09,12,02,08,14.10
2014,09,12,02,09,14.10
2014,09,12,02,10,14.10
2014,09,12,02,11,14.00
2014,09,12,02,12,14.00
2014,09,12,02,13,13.90
2014,09,12,02,14,13.90
2014,09,12,02,15,13.90
2014,09,12,02,16,13.80
2014,09,12,02,17,13.80
2014,09,12,02,18,13.80
2014,09,12,02,19,13.80
2014,09,12,02,20,13.80
2014,09,12,02,21,13.80
2014,09,12,02,22,13.70
2014,09,12,02,23,13.70
2014,09,12,02,24,13.80
2014,09,12,02,25,13.80
2014,09,12,02,26,13.80
2014,09,12,02,27,13.80
2014,09,12,02,28,13.70
2014,09,12,02,29,13.70
2014,09,12,02,30,13.70
2014,09,12,02,31,13.70
2014,09,12,02,32,13.70
2014,09,12,02,33,13.60
2014,09,12,02,34,13.60
2014,09,12,02,35,13.60
2014,09,12,02,36,13.50
2014,09,12,02,37,13.50
2014,09,12,02,38,13.50
2014,09,12,02,39,13.40
2014,09,12,02,40,13.40
2014,09,12,02,41,13.40
2014,09,12,02,42,13.30
2014,09,12,02,43,13.30
2014,09,12,02,44,13.30
2014,09,12,02,45,13.20
2014,09,12,02,46,13.20
2014,09,12,02,47,13.10
2014,09,12,02,48,13.10
2014,09,12,02,49,13.10
2014,09,12,02,50,13.10
2014,09,12,02,51,13.10
2014,09,12,02,52,13.10
2014,09,12,02,53,13.00
2014,09,12,02,54,13.00
2014,09,12,02,55,13.00
2014,09,12,02,56,13.00
2014,09,12,02,57,13.00
2014,09,12,02,58,13.00
2014,09,12,02,59,13.00
2014,09,12,03,00,13.00
2014,09,12,03,01,13.10
2014,09,12,03,02,13.10
2014,09,12,03,03,13.10
2014,09,12,03,04,13.10
2014,09,12,03,05,13.10
2014,09,12,03,06,13.20
2014,09,12,03,07,13.20
2014,09,12,03,08,13.20
2014,09,12,03,09,13.20
2014,09,12,03,10,13.20
2014,09,12,03,11,13.20
2014,09,12,03,12,13.20
2014,09,12,03,13,13.30
2014,09,12,03,14,13.30
2014,09,12,03,15,13.30
2014,09,12,03,16,13.30
2014,09,12,03,17,13.30
2014,09,12,03,18,13.30
2014,09,12,03,19,13.40
2014,09,12,03,20,13.40
2014,09,12,03,21,13.40
2014,09,12,03,22,13.30
2014,09,12,03,23,13.30
2014,09,12,03,24,13.30
2014,09,12,03,25,13.20
2014,09,12,03,26,13.10
2014,09,12,03,27,13.00
2014,09,12,03,28,13.00
2014,09,12,03,29,12.90
2014,09,12,03,30,12.90
2014,09,12,03,31,12.90
2014,09,12,03,32,12.80
2014,09,12,03,33,12.80
2014,09,12,03,34,12.70
2014,09,12,03,35,12.70
2014,09,12,03,36,12.70
2014,09,12,03,37,12.70
2014,09,12,03,38,12.60
2014,09,12,03,39,12.70
2014,09,12,03,40,12.70
2014,09,12,03,41,12.70
2014,09,12,03,42,12.70
2014,09,12,03,43,12.80
2014,09,12,03,44,12.80
2014,09,12,03,45,12.90
2014,09,12,03,46,12.80
2014,09,12,03,47,12.80
2014,09,12,03,48,12.80
2014,09,12,03,49,12.80
2014,09,12,03,50,12.80
2014,09,12,03,51,12.80
2014,09,12,03,52,12.80
2014,09,12,03,53,12.80
2014,09,12,03,54,12.80
2014,09,12,03,55,12.80
2014,09,12,03,56,12.70
2014,09,12,03,57,12.70
2014,09,12,03,58,12.60
2014,09,12,03,59,12.50
2014,09,12,04,00,12.40
2014,09,12,04,01,12.40
2014,09,12,04,02,12.30
2014,09,12,04,03,12.30
2014,09,12,04,04,12.20
2014,09,12,04,05,12.20
2014,09,12,04,06,12.10
2014,09,12,04,07,12.10
2014,09,12,04,08,12.10
2014,09,12,04,09,12.00
2014,09,12,04,10,12.00
2014,09,12,04,11,12.00
2014,09,12,04,12,12.00
2014,09,12,04,13,11.90
2014,09,12,04,14,11.90
2014,09,12,04,15,11.90
2014,09,12,04,16,11.90
2014,09,12,04,17,11.90
2014,09,12,04,18,11.90
2014,09,12,04,19,11.90
2014,09,12,04,20,11.80
2014,09,12,04,21,11.80
2014,09,12,04,22,11.80
2014,09,12,04,23,11.80
2014,09,12,04,24,11.80
2014,09,12,04,25,11.80
2014,09,12,04,26,11.80
2014,09,12,04,27,11.80
2014,09,12,04,28,11.80
2014,09,12,04,29,11.80
2014,09,12,04,30,11.80
2014,09,12,04,31,11.80
2014,09,12,04,32,11.80
2014,09,12,04,33,11.80
2014,09,12,04,34,11.70
2014,09,12,04,35,11.70
2014,09,12,04,36,11.70
2014,09,12,04,37,11.70
2014,09,12,04,38,11.70
2014,09,12,04,39,11.60
2014,09,12,04,40,11.60
2014,09,12,04,41,11.60
2014,09,12,04,42,11.50
2014,09,12,04,43,11.50
2014,09,12,04,44,11.50
2014,09,12,04,45,11.50
2014,09,12,04,46,11.50
2014,09,12,04,47,11.40
2014,09,12,04,48,11.40
2014,09,12,04,49,11.40
2014,09,12,04,50,11.40
2014,09,12,04,51,11.40
2014,09,12,04,52,11.40
2014,09,12,04,53,11.40
2014,09,12,04,54,11.40
2014,09,12,04,55,11.40
2014,09,12,04,56,11.40
2014,09,12,04,57,11.40
2014,09,12,04,58,11.40
2014,09,12,04,59,11.30
2014,09,12,05,00,11.30
2014,09,12,05,01,11.30
2014,09,12,05,02,11.30
2014,09,12,05,03,11.30
2014,09,12,05,04,11.30
2014,09,12,05,05,11.30
2014,09,12,05,06,11.30
2014,09,12,05,07,11.20
2014,09,12,05,08,11.20
2014,09,12,05,09,11.20
2014,09,12,05,10,11.20
2014,09,12,05,11,11.20
2014,09,12,05,12,11.20
2014,09,12,05,13,11.10
2014,09,12,05,14,11.10
2014,09,12,05,15,11.10
2014,09,12,05,16,11.10
2014,09,12,05,17,11.00
2014,09,12,05,18,11.00
2014,09,12,05,19,11.00
2014,09,12,05,20,11.00
2014,09,12,05,21,10.90
2014,09,12,05,22,10.90
2014,09,12,05,23,10.90
2014,09,12,05,24,10.90
2014,09,12,05,25,10.90
2014,09,12,05,26,10.90
2014,09,12,05,27,10.90
2014,09,12,05,28,10.90
2014,09,12,05,29,10.90
2014,09,12,05,30,10.80
2014,09,12,05,31,10.80
2014,09,12,05,32,10.80
2014,09,12,05,33,10.70
2014,09,12,05,34,10.70
2014,09,12,05,35,10.70
2014,09,12,05,36,10.70
2014,09,12,05,37,10.70
2014,09,12,05,38,10.60
2014,09,12,05,39,10.70
2014,09,12,05,40,10.70
2014,09,12,05,41,10.70
2014,09,12,05,42,10.70
2014,09,12,05,43,10.70
2014,09,12,05,44,10.70
2014,09,12,05,45,10.60
2014,09,12,05,46,10.60
2014,09,12,05,47,10.60
2014,09,12,05,48,10.60
2014,09,12,05,49,10.60
2014,09,12,05,50,10.60
2014,09,12,05,51,10.60
2014,09,12,05,52,10.50
2014,09,12,05,53,10.50
2014,09,12,05,54,10.50
2014,09,12,05,55,10.50
2014,09,12,05,56,10.50
2014,09,12,05,57,10.50
2014,09,12,05,58,10.40
2014,09,12,05,59,10.40
2014,09,12,06,00,10.40
2014,09,12,06,01,10.40
2014,09,12,06,02,10.40
2014,09,12,06,03,10.30
2014,09,12,06,04,10.30
2014,09,12,06,05,10.30
2014,09,12,06,06,10.30
2014,09,12,06,07,10.30
2014,09,12,06,08,10.30
2014,09,12,06,09,10.30
2014,09,12,06,10,10.30
2014,09,12,06,11,10.20
2014,09,12,06,12,10.20
2014,09,12,06,13,10.20
2014,09,12,06,14,10.20
2014,09,12,06,15,10.20
2014,09,12,06,16,10.20
2014,09,12,06,17,10.20
2014,09,12,06,18,10.20
2014,09,12,06,19,10.30
2014,09,12,06,20,10.30
2014,09,12,06,21,10.30
2014,09,12,06,22,10.30
2014,09,12,06,23,10.20
2014,09,12,06,24,10.20
2014,09,12,06,25,10.30
2014,09,12,06,26,10.40
2014,09,12,06,27,10.40
2014,09,12,06,28,10.50
2014,09,12,06,29,10.50
2014,09,12,06,30,10.60
2014,09,12,06,31,10.60
2014,09,12,06,32,10.60
2014,09,12,06,33,10.70
2014,09,12,06,34,10.80
2014,09,12,06,35,10.90
2014,09,12,06,36,11.00
2014,09,12,06,37,11.00
2014,09,12,06,38,11.00
2014,09,12,06,39,11.00
2014,09,12,06,40,11.00
2014,09,12,06,41,10.90
2014,09,12,06,42,10.90
2014,09,12,06,43,10.90
2014,09,12,06,44,10.90
2014,09,12,06,45,10.90
2014,09,12,06,46,10.90
2014,09,12,06,47,10.90
2014,09,12,06,48,10.90
2014,09,12,06,49,10.90
2014,09,12,06,50,10.90
2014,09,12,06,51,10.90
2014,09,12,06,52,10.90
2014,09,12,06,53,10.90
2014,09,12,06,54,10.80
2014,09,12,06,55,10.80
2014,09,12,06,56,10.80
2014,09,12,06,57,10.80
2014,09,12,06,58,10.80
2014,09,12,06,59,10.80
2014,09,12,07,00,10.80
2014,09,12,07,01,10.70
2014,09,12,07,02,10.70
2014,09,12,07,03,10.70
2014,09,12,07,04,10.70
2014,09,12,07,05,10.60
2014,09,12,07,06,10.60
2014,09,12,07,07,10.60
2014,09,12,07,08,10.50
2014,09,12,07,09,10.50
2014,09,12,07,10,10.50
2014,09,12,07,11,10.50
2014,09,12,07,12,10.50
2014,09,12,07,13,10.50
2014,09,12,07,14,10.50
2014,09,12,07,15,10.50
2014,09,12,07,16,10.60
2014,09,12,07,17,10.60
2014,09,12,07,18,10.60
2014,09,12,07,19,10.70
2014,09,12,07,20,10.70
2014,09,12,07,21,10.70
2014,09,12,07,22,10.80
2014,09,12,07,23,10.80
2014,09,12,07,24,10.80
2014,09,12,07,25,10.80
2014,09,12,07,26,10.80
2014,09,12,07,27,10.80
2014,09,12,07,28,10.80
2014,09,12,07,29,10.80
2014,09,12,07,30,10.80
2014,09,12,07,31,10.80
2014,09,12,07,32,10.80
2014,09,12,07,33,10.80
2014,09,12,07,34,10.80
2014,09,12,07,35,10.80
2014,09,12,07,36,10.80
2014,09,12,07,37,10.80
2014,09,12,07,38,10.80
2014,09,12,07,39,10.80
2014,09,12,07,40,10.80
2014,09,12,07,41,10.80
2014,09,12,07,42,10.80
2014,09,12,07,43,10.80
2014,09,12,07,44,10.80
2014,09,12,07,45,10.80
2014,09,12,07,46,10.80
2014,09,12,07,47,10.80
2014,09,12,07,48,10.80
2014,09,12,07,49,10.80
2014,09,12,07,50,10.80
2014,09,12,07,51,10.80
2014,09,12,07,52,10.70
2014,09,12,07,53,10.80
2014,09,12,07,54,10.80
2014,09,12,07,55,10.80
2014,09,12,07,56,10.90
2014,09,12,07,57,11.00
2014,09,12,07,58,11.10
2014,09,12,07,59,11.10
2014,09,12,08,00,11.30
2014,09,12,08,01,11.40
2014,09,12,08,02,11.50
2014,09,12,08,03,11.60
2014,09,12,08,04,11.70
2014,09,12,08,05,11.80
2014,09,12,08,06,11.90
2014,09,12,08,07,11.90
2014,09,12,08,08,12.00
2014,09,12,08,09,12.00
2014,09,12,08,10,12.00
2014,09,12,08,11,12.10
2014,09,12,08,12,12.10
2014,09,12,08,13,12.10
2014,09,12,08,14,12.10
2014,09,12,08,15,12.20
2014,09,12,08,16,12.20
2014,09,12,08,17,12.20
2014,09,12,08,18,12.20
2014,09,12,08,19,12.30
2014,09,12,08,20,12.30
2014,09,12,08,21,12.30
2014,09,12,08,22,12.40
2014,09,12,08,23,12.40
2014,09,12,08,24,12.40
2014,09,12,08,25,12.40
2014,09,12,08,26,12.50
2014,09,12,08,27,12.50
2014,09,12,08,28,12.60
2014,09,12,08,29,12.60
2014,09,12,08,30,12.60
2014,09,12,08,31,12.70
2014,09,12,08,32,12.70
2014,09,12,08,33,12.70
2014,09,12,08,34,12.80
2014,09,12,08,35,12.80
2014,09,12,08,36,12.80
2014,09,12,08,37,12.90
2014,09,12,08,38,12.90
2014,09,12,08,39,13.00
2014,09,12,08,40,13.00
2014,09,12,08,41,13.10
2014,09,12,08,42,13.10
2014,09,12,08,43,13.20
2014,09,12,08,44,13.20
2014,09,12,08,45,13.30
2014,09,12,08,46,13.30
2014,09,12,08,47,13.30
2014,09,12,08,48,13.30
2014,09,12,08,49,13.40
2014,09,12,08,50,13.40
2014,09,12,08,51,13.40
2014,09,12,08,52,13.50
2014,09,12,08,53,13.50
2014,09,12,08,54,13.60
2014,09,12,08,55,13.70
2014,09,12,08,56,13.80
2014,09,12,08,57,13.80
2014,09,12,08,58,13.90
2014,09,12,08,59,14.00
2014,09,12,09,00,14.00
2014,09,12,09,01,14.10
2014,09,12,09,02,14.10
2014,09,12,09,03,14.20
2014,09,12,09,04,14.20
2014,09,12,09,05,14.30
2014,09,12,09,06,14.30
2014,09,12,09,07,14.30
2014,09,12,09,08,14.40
2014,09,12,09,09,14.40
2014,09,12,09,10,14.40
2014,09,12,09,11,14.50
2014,09,12,09,12,14.60
2014,09,12,09,13,14.60
2014,09,12,09,14,14.70
2014,09,12,09,15,14.70
2014,09,12,09,16,14.80
2014,09,12,09,17,14.80
2014,09,12,09,18,14.80
2014,09,12,09,19,14.80
2014,09,12,09,20,14.80
2014,09,12,09,21,14.90
2014,09,12,09,22,14.90
2014,09,12,09,23,15.00
2014,09,12,09,24,15.00
2014,09,12,09,25,15.10
2014,09,12,09,26,15.10
2014,09,12,09,27,15.10
2014,09,12,09,28,15.10
2014,09,12,09,29,15.20
2014,09,12,09,30,15.20
2014,09,12,09,31,15.20
2014,09,12,09,32,15.20
2014,09,12,09,33,15.20
2014,09,12,09,34,15.20
2014,09,12,09,35,15.20
2014,09,12,09,36,15.30
2014,09,12,09,37,15.30
2014,09,12,09,38,15.40
2014,09,12,09,39,15.40
2014,09,12,09,40,15.40
2014,09,12,09,41,15.40
2014,09,12,09,42,15.50
2014,09,12,09,43,15.50
2014,09,12,09,44,15.60
2014,09,12,09,45,15.60
2014,09,12,09,46,15.70
2014,09,12,09,47,15.70
2014,09,12,09,48,15.80
2014,09,12,09,49,15.80
2014,09,12,09,50,15.90
2014,09,12,09,51,15.90
2014,09,12,09,52,15.90
2014,09,12,09,53,15.90
2014,09,12,09,54,15.90
2014,09,12,09,55,15.90
2014,09,12,09,56,15.90
2014,09,12,09,57,15.90
2014,09,12,09,58,15.90
2014,09,12,09,59,15.90
2014,09,12,10,00,16.00
2014,09,12,10,01,16.00
2014,09,12,10,02,16.00
2014,09,12,10,03,16.00
2014,09,12,10,04,16.00
2014,09,12,10,05,16.00
2014,09,12,10,06,16.00
2014,09,12,10,07,16.00
2014,09,12,10,08,15.90
2014,09,12,10,09,16.00
2014,09,12,10,10,16.00
2014,09,12,10,11,16.00
2014,09,12,10,12,16.10
2014,09,12,10,13,16.10
2014,09,12,10,14,16.20
2014,09,12,10,15,16.30
2014,09,12,10,16,16.30
2014,09,12,10,17,16.40
2014,09,12,10,18,16.40
2014,09,12,10,19,16.50
2014,09,12,10,20,16.60
2014,09,12,10,21,16.70
2014,09,12,10,22,16.80
2014,09,12,10,23,16.90
2014,09,12,10,24,16.90
2014,09,12,10,25,17.00
2014,09,12,10,26,17.00
2014,09,12,10,27,17.00
2014,09,12,10,28,17.00
2014,09,12,10,29,17.00
2014,09,12,10,30,17.00
2014,09,12,10,31,17.00
2014,09,12,10,32,17.10
2014,09,12,10,33,17.10
2014,09,12,10,34,17.10
2014,09,12,10,35,17.20
2014,09,12,10,36,17.20
2014,09,12,10,37,17.20
2014,09,12,10,38,17.20
2014,09,12,10,39,17.20
2014,09,12,10,40,17.20
2014,09,12,10,41,17.10
2014,09,12,10,42,17.10
2014,09,12,10,43,17.10
2014,09,12,10,44,17.20
2014,09,12,10,45,17.20
2014,09,12,10,46,17.20
2014,09,12,10,47,17.20
2014,09,12,10,48,17.30
2014,09,12,10,49,17.30
2014,09,12,10,50,17.40
2014,09,12,10,51,17.40
2014,09,12,10,52,17.50
2014,09,12,10,53,17.50
2014,09,12,10,54,17.60
2014,09,12,10,55,17.60
2014,09,12,10,56,17.60
2014,09,12,10,57,17.60
2014,09,12,10,58,17.60
2014,09,12,10,59,17.70
2014,09,12,11,00,17.70
2014,09,12,11,01,17.80
2014,09,12,11,02,17.80
2014,09,12,11,03,17.80
2014,09,12,11,04,17.90
2014,09,12,11,05,17.90
2014,09,12,11,06,17.90
2014,09,12,11,07,17.90
2014,09,12,11,08,18.00
2014,09,12,11,09,18.10
2014,09,12,11,10,18.10
2014,09,12,11,11,18.00
2014,09,12,11,12,18.00
2014,09,12,11,13,18.10
2014,09,12,11,14,18.00
2014,09,12,11,15,18.00
2014,09,12,11,16,18.00
2014,09,12,11,17,18.00
2014,09,12,11,18,18.00
2014,09,12,11,19,18.10
2014,09,12,11,20,18.10
2014,09,12,11,21,18.20
2014,09,12,11,22,18.30
2014,09,12,11,23,18.40
2014,09,12,11,24,18.40
2014,09,12,11,25,18.50
2014,09,12,11,26,18.50
2014,09,12,11,27,18.60
2014,09,12,11,28,18.70
2014,09,12,11,29,18.80
2014,09,12,11,30,18.80
2014,09,12,11,31,18.80
2014,09,12,11,32,18.80
2014,09,12,11,33,18.90
2014,09,12,11,34,18.90
2014,09,12,11,35,19.00
2014,09,12,11,36,19.10
2014,09,12,11,37,19.20
2014,09,12,11,38,19.30
2014,09,12,11,39,19.40
2014,09,12,11,40,19.50
2014,09,12,11,41,19.60
2014,09,12,11,42,19.60
2014,09,12,11,43,19.70
2014,09,12,11,44,19.80
2014,09,12,11,45,19.90
2014,09,12,11,46,19.90
2014,09,12,11,47,20.00
2014,09,12,11,48,20.00
2014,09,12,11,49,20.10
2014,09,12,11,50,20.10
2014,09,12,11,51,20.10
2014,09,12,11,52,20.10
2014,09,12,11,53,20.10
2014,09,12,11,54,20.00
2014,09,12,11,55,20.00
2014,09,12,11,56,19.90
2014,09,12,11,57,19.80
2014,09,12,11,58,19.80
2014,09,12,11,59,19.80
2014,09,12,12,00,19.80
2014,09,12,12,01,19.80
2014,09,12,12,02,19.80
2014,09,12,12,03,19.90
2014,09,12,12,04,19.90
2014,09,12,12,05,20.00
2014,09,12,12,06,20.10
2014,09,12,12,07,20.20
2014,09,12,12,08,20.30
2014,09,12,12,09,20.30
2014,09,12,12,10,20.30
2014,09,12,12,11,20.30
2014,09,12,12,12,20.30
2014,09,12,12,13,20.30
2014,09,12,12,14,20.40
2014,09,12,12,15,20.40
2014,09,12,12,16,20.30
2014,09,12,12,17,20.20
2014,09,12,12,18,20.20
2014,09,12,12,19,20.20
2014,09,12,12,20,20.10
2014,09,12,12,21,20.10
2014,09,12,12,22,20.10
2014,09,12,12,23,20.10
2014,09,12,12,24,20.20
2014,09,12,12,25,20.20
2014,09,12,12,26,20.30
2014,09,12,12,27,20.30
2014,09,12,12,28,20.30
2014,09,12,12,29,20.40
2014,09,12,12,30,20.50
2014,09,12,12,31,20.60
2014,09,12,12,32,20.60
2014,09,12,12,33,20.80
2014,09,12,12,34,20.80
2014,09,12,12,35,20.80
2014,09,12,12,36,20.90
2014,09,12,12,37,20.90
2014,09,12,12,38,21.00
2014,09,12,12,39,21.00
2014,09,12,12,40,21.00
2014,09,12,12,41,21.10
2014,09,12,12,42,21.10
2014,09,12,12,43,21.20
2014,09,12,12,44,21.20
2014,09,12,12,45,21.20
2014,09,12,12,46,21.20
2014,09,12,12,47,21.20
2014,09,12,12,48,21.30
2014,09,12,12,49,21.30
2014,09,12,12,50,21.40
2014,09,12,12,51,21.50
2014,09,12,12,52,21.50
2014,09,12,12,53,21.60
2014,09,12,12,54,21.70
2014,09,12,12,55,21.70
2014,09,12,12,56,21.80
2014,09,12,12,57,21.80
2014,09,12,12,58,21.80
2014,09,12,12,59,21.80
2014,09,12,13,00,21.90
2014,09,12,13,01,21.90
2014,09,12,13,02,21.90
2014,09,12,13,03,21.90
2014,09,12,13,04,22.00
2014,09,12,13,05,22.00
2014,09,12,13,06,21.90
2014,09,12,13,07,21.90
2014,09,12,13,08,21.90
2014,09,12,13,09,22.00
2014,09,12,13,10,22.00
2014,09,12,13,11,22.10
2014,09,12,13,12,22.10
2014,09,12,13,13,22.10
2014,09,12,13,14,22.10
2014,09,12,13,15,22.20
2014,09,12,13,16,22.20
2014,09,12,13,17,22.10
2014,09,12,13,18,22.10
2014,09,12,13,19,22.10
2014,09,12,13,20,22.10
2014,09,12,13,21,22.10
2014,09,12,13,22,22.10
2014,09,12,13,23,22.10
2014,09,12,13,24,22.20
2014,09,12,13,25,22.30
2014,09,12,13,26,22.40
2014,09,12,13,27,22.40
2014,09,12,13,28,22.50
2014,09,12,13,29,22.60
2014,09,12,13,30,22.70
2014,09,12,13,31,22.80
2014,09,12,13,32,22.80
2014,09,12,13,33,22.80
2014,09,12,13,34,22.90
2014,09,12,13,35,22.90
2014,09,12,13,36,23.00
2014,09,12,13,37,23.00
2014,09,12,13,38,23.10
2014,09,12,13,39,23.20
2014,09,12,13,40,23.20
2014,09,12,13,41,23.20
2014,09,12,13,42,23.20
2014,09,12,13,43,23.20
2014,09,12,13,44,23.20
2014,09,12,13,45,23.20
2014,09,12,13,46,23.20
2014,09,12,13,47,23.20
2014,09,12,13,48,23.20
2014,09,12,13,49,23.20
2014,09,12,13,50,23.20
2014,09,12,13,51,23.20
2014,09,12,13,52,23.20
2014,09,12,13,53,23.30
2014,09,12,13,54,23.30
2014,09,12,13,55,23.20
2014,09,12,13,56,23.20
2014,09,12,13,57,23.20
2014,09,12,13,58,23.20
2014,09,12,13,59,23.20
2014,09,12,14,00,23.20
2014,09,12,14,01,23.20
2014,09,12,14,02,23.20
2014,09,12,14,03,23.20
2014,09,12,14,04,23.20
2014,09,12,14,05,23.20
2014,09,12,14,06,23.30
2014,09,12,14,07,23.30
2014,09,12,14,08,23.30
2014,09,12,14,09,23.30
2014,09,12,14,10,23.40
2014,09,12,14,11,23.40
2014,09,12,14,12,23.50
2014,09,12,14,13,23.60
2014,09,12,14,14,23.70
2014,09,12,14,15,23.80
2014,09,12,14,16,23.80
2014,09,12,14,17,23.90
2014,09,12,14,18,23.90
2014,09,12,14,19,24.00
2014,09,12,14,20,24.00
2014,09,12,14,21,24.10
2014,09,12,14,22,24.00
2014,09,12,14,23,24.00
2014,09,12,14,24,23.90
2014,09,12,14,25,23.90
2014,09,12,14,26,23.80
2014,09,12,14,27,23.70
2014,09,12,14,28,23.70
2014,09,12,14,29,23.70
2014,09,12,14,30,23.70
2014,09,12,14,31,23.70
2014,09,12,14,32,23.80
2014,09,12,14,33,23.80
2014,09,12,14,34,23.80
2014,09,12,14,35,23.80
2014,09,12,14,36,23.80
2014,09,12,14,37,23.90
2014,09,12,14,38,23.90
2014,09,12,14,39,23.90
2014,09,12,14,40,23.90
2014,09,12,14,41,23.90
2014,09,12,14,42,23.90
2014,09,12,14,43,24.00
2014,09,12,14,44,24.10
2014,09,12,14,45,24.10
2014,09,12,14,46,24.10
2014,09,12,14,47,24.20
2014,09,12,14,48,24.20
2014,09,12,14,49,24.30
2014,09,12,14,50,24.30
2014,09,12,14,51,24.30
2014,09,12,14,52,24.40
2014,09,12,14,53,24.40
2014,09,12,14,54,24.30
2014,09,12,14,55,24.30
2014,09,12,14,56,24.20
2014,09,12,14,57,24.20
2014,09,12,14,58,24.20
2014,09,12,14,59,24.10
2014,09,12,15,00,24.00
2014,09,12,15,01,24.00
2014,09,12,15,02,23.90
2014,09,12,15,03,24.00
2014,09,12,15,04,24.10
2014,09,12,15,05,24.10
2014,09,12,15,06,24.00
2014,09,12,15,07,23.90
2014,09,12,15,08,23.80
2014,09,12,15,09,23.60
2014,09,12,15,10,23.50
2014,09,12,15,11,23.40
2014,09,12,15,12,23.40
2014,09,12,15,13,23.40
2014,09,12,15,14,23.30
2014,09,12,15,15,23.30
2014,09,12,15,16,23.30
2014,09,12,15,17,23.40
2014,09,12,15,18,23.40
2014,09,12,15,19,23.40
2014,09,12,15,20,23.40
2014,09,12,15,21,23.40
2014,09,12,15,22,23.30
2014,09,12,15,23,23.20
2014,09,12,15,24,23.20
2014,09,12,15,25,23.20
2014,09,12,15,26,23.20
2014,09,12,15,27,23.20
2014,09,12,15,28,23.20
2014,09,12,15,29,23.30
2014,09,12,15,30,23.40
2014,09,12,15,31,23.50
2014,09,12,15,32,23.60
2014,09,12,15,33,23.70
2014,09,12,15,34,23.80
2014,09,12,15,35,23.90
2014,09,12,15,36,24.00
2014,09,12,15,37,24.00
2014,09,12,15,38,24.10
2014,09,12,15,39,24.20
2014,09,12,15,40,24.20
2014,09,12,15,41,24.20
2014,09,12,15,42,24.20
2014,09,12,15,43,24.20
2014,09,12,15,44,24.20
2014,09,12,15,45,24.20
2014,09,12,15,46,24.20
2014,09,12,15,47,24.20
2014,09,12,15,48,24.20
2014,09,12,15,49,24.10
2014,09,12,15,50,24.10
2014,09,12,15,51,24.00
2014,09,12,15,52,24.00
2014,09,12,15,53,23.90
2014,09,12,15,54,23.90
2014,09,12,15,55,23.80
2014,09,12,15,56,23.80
2014,09,12,15,57,23.80
2014,09,12,15,58,23.80
2014,09,12,15,59,23.70
2014,09,12,16,00,23.70
2014,09,12,16,01,23.70
2014,09,12,16,02,23.70
2014,09,12,16,03,23.70
2014,09,12,16,04,23.60
2014,09,12,16,05,23.60
2014,09,12,16,06,23.50
2014,09,12,16,07,23.40
2014,09,12,16,08,23.40
2014,09,12,16,09,23.30
2014,09,12,16,10,23.30
2014,09,12,16,11,23.20
2014,09,12,16,12,23.20
2014,09,12,16,13,23.20
2014,09,12,16,14,23.10
2014,09,12,16,15,23.10
2014,09,12,16,16,23.10
2014,09,12,16,17,23.10
2014,09,12,16,18,23.20
2014,09,12,16,19,23.20
2014,09,12,16,20,23.10
2014,09,12,16,21,23.10
2014,09,12,16,22,23.10
2014,09,12,16,23,23.00
2014,09,12,16,24,22.90
2014,09,12,16,25,22.90
2014,09,12,16,26,22.80
2014,09,12,16,27,22.80
2014,09,12,16,28,22.70
2014,09,12,16,29,22.70
2014,09,12,16,30,22.70
2014,09,12,16,31,22.70
2014,09,12,16,32,22.60
2014,09,12,16,33,22.60
2014,09,12,16,34,22.60
2014,09,12,16,35,22.60
2014,09,12,16,36,22.60
2014,09,12,16,37,22.50
2014,09,12,16,38,22.50
2014,09,12,16,39,22.40
2014,09,12,16,40,22.30
2014,09,12,16,41,22.30
2014,09,12,16,42,22.20
2014,09,12,16,43,22.20
2014,09,12,16,44,22.20
2014,09,12,16,45,22.10
2014,09,12,16,46,22.10
2014,09,12,16,47,22.00
2014,09,12,16,48,22.00
2014,09,12,16,49,22.00
2014,09,12,16,50,21.90
2014,09,12,16,51,21.90
2014,09,12,16,52,21.80
2014,09,12,16,53,21.70
2014,09,12,16,54,21.70
2014,09,12,16,55,21.70
2014,09,12,16,56,21.70
2014,09,12,16,57,21.70
2014,09,12,16,58,21.70
2014,09,12,16,59,21.70
2014,09,12,17,00,21.80
2014,09,12,17,01,21.80
2014,09,12,17,02,21.80
2014,09,12,17,03,21.80
2014,09,12,17,04,21.80
2014,09,12,17,05,21.90
2014,09,12,17,06,21.90
2014,09,12,17,07,21.90
2014,09,12,17,08,21.90
2014,09,12,17,09,21.90
2014,09,12,17,10,21.90
2014,09,12,17,11,22.00
2014,09,12,17,12,22.00
2014,09,12,17,13,22.10
2014,09,12,17,14,22.10
2014,09,12,17,15,22.10
2014,09,12,17,16,22.10
2014,09,12,17,17,22.10
2014,09,12,17,18,22.10
2014,09,12,17,19,22.10